2015-049G

Last updated on Wed Apr 24 2024 00:02:58 GMT+0000 (Coordinated Universal Time)

1 40905U 15049G 24114.57251432 .00018066 00000+0 67894-3 0 9995 2 40905 97.5243 123.1438 0012648 165.1238 195.0375 15.27152973475377
UTC large
Height (km)
Speed (km/s)
/
Latitude / Longitude
Inclination (degrees)
Orbital Period (minutes)
Azimuth
Elevation
Range (km)
Doppler Factor

Next 0 passes for location: London (51.5072 / 0.1276)

Sorry there are no passes over London.
2015-049G